Simultaneous Nadir Overpasses (SNOs) Predictions

Prediction of SNOs between AQUA and METOP-C Satellite Orbit:

Table of predicted SNOs for the next 14.0 days since TLE Epoch: 2/13/2021
Index Date (AQUA) Time (AQUA) Lat,Lon (AQUA) SZA (AQUA ) Date (METOP-C) Time (METOP-C) Lat,Lon (METOP-C) SZA (METOP-C ) Distance(km) Time Diff (sec)
1 02/14/2021 21:10:30 73.08,-141.91 85.85 02/14/2021 21:09:23 73.04,-144.40 85.94 80.77 67
2 02/14/2021 22:00:08 -73.71, 24.41 93.49 02/14/2021 21:59:52 -73.73, 24.47 93.47 3.15 16
3 02/14/2021 22:49:36 73.75,-168.05 86.55 02/14/2021 22:50:30 73.77,-168.09 86.56 2.20 54
4 02/17/2021 16:44:51 73.36, -76.06 85.17 02/17/2021 16:43:41 73.27, -77.49 85.16 46.95 70
5 02/17/2021 17:34:24 -73.73, 90.81 94.45 02/17/2021 17:34:15 -73.71, 90.84 94.46 1.93 9
6 02/17/2021 18:23:52 73.77,-101.66 85.60 02/17/2021 18:24:52 73.80,-101.61 85.61 3.00 60
7 02/20/2021 12:19:10 73.60, -10.11 84.42 02/20/2021 12:17:57 73.55, -10.45 84.40 12.06 73
8 02/20/2021 13:08:38 -73.70, 157.31 95.49 02/20/2021 13:08:37 -73.69, 157.20 95.49 3.66 1
9 02/20/2021 13:58:07 73.80, -35.28 84.62 02/20/2021 13:59:14 73.78, -35.26 84.58 2.88 67
10 02/23/2021 07:53:27 73.68, 56.14 83.48 02/23/2021 07:52:17 73.67, 56.24 83.49 3.29 70
11 02/23/2021 08:42:54 -73.73,-136.32 96.48 02/23/2021 08:42:59 -73.71,-136.34 96.50 1.89 5
12 02/23/2021 09:32:23 73.83, 31.09 83.62 02/23/2021 09:33:35 73.85, 31.33 83.62 7.59 72
13 02/26/2021 03:27:42 73.67, 122.62 82.42 02/26/2021 03:26:40 73.65, 122.59 82.41 2.36 62
14 02/26/2021 04:17:09 -73.72, -69.85 97.54 02/26/2021 04:17:21 -73.74, -69.88 97.52 2.42 12



Historial Predications of SNOs between AQUA and METOP-C
